N39VA KFCI-KFCI

Flight info

Callsign N39VA
Flight time 0h 27m
Altitude 1500
Route VFR
Aircraft EC45/L-G/C

Departure

Time 2026-05-04 11:44
Airport Richmond Executive-Chesterfield County Airport (KFCI)

Arrival

Time 2026-05-04 12:11
Airport Richmond Executive-Chesterfield County Airport (KFCI)
Time Latitude Longitude Altitude Speed Heading
2026-05-04 11:31 37.40503 -77.51943 214 ft 0 kts 251°
2026-05-04 11:41 37.40503 -77.51944 214 ft 0 kts 217°
2026-05-04 11:41 37.40511 -77.51949 220 ft 2 kts 223°
2026-05-04 11:42 37.40510 -77.51948 223 ft 0 kts 223°
2026-05-04 11:42 37.40509 -77.51947 223 ft 0 kts 223°
2026-05-04 11:42 37.40508 -77.51956 304 ft 1 kts 84°
2026-05-04 11:43 37.40501 -77.51948 361 ft 2 kts 18°
2026-05-04 11:43 37.40521 -77.51912 356 ft 9 kts 18°
2026-05-04 11:43 37.40597 -77.51812 420 ft 32 kts 19°
2026-05-04 11:43 37.40835 -77.51458 614 ft 74 kts 40°
2026-05-04 11:44 37.41180 -77.50800 686 ft 104 kts 52°
2026-05-04 11:44 37.41596 -77.49959 683 ft 120 kts 49°
2026-05-04 11:44 37.42255 -77.49275 771 ft 127 kts 24°
2026-05-04 11:44 37.43117 -77.49014 876 ft 129 kts 359°
2026-05-04 11:45 37.44010 -77.49026 1029 ft 126 kts 358°
2026-05-04 11:45 37.44581 -77.49025 1087 ft 121 kts 358°
2026-05-04 11:45 37.45638 -77.49024 1061 ft 109 kts 358°
2026-05-04 11:45 37.46375 -77.49031 1006 ft 103 kts 358°
2026-05-04 11:46 37.47074 -77.49045 981 ft 99 kts 357°
2026-05-04 11:46 37.47753 -77.49060 968 ft 97 kts 358°
2026-05-04 11:46 37.48197 -77.49052 963 ft 96 kts 360°
2026-05-04 11:46 37.48864 -77.49007 959 ft 96 kts
2026-05-04 11:47 37.49568 -77.49019 949 ft 110 kts 355°
2026-05-04 11:47 37.50422 -77.49103 1014 ft 134 kts 353°
2026-05-04 11:47 37.51374 -77.49062 1133 ft 134 kts
2026-05-04 11:47 37.52225 -77.48906 1353 ft 113 kts
2026-05-04 11:48 37.52935 -77.48699 1298 ft 104 kts 14°
2026-05-04 11:48 37.53638 -77.48428 1276 ft 109 kts 17°
2026-05-04 11:48 37.54407 -77.48123 1267 ft 122 kts 13°
2026-05-04 11:48 37.55268 -77.47879 1264 ft 131 kts
2026-05-04 11:49 37.56186 -77.47686 1263 ft 136 kts
2026-05-04 11:49 37.57115 -77.47500 1282 ft 127 kts
2026-05-04 11:49 37.57917 -77.47412 1275 ft 106 kts
2026-05-04 11:49 37.58590 -77.47284 1268 ft 94 kts
2026-05-04 11:50 37.59248 -77.47132 1258 ft 101 kts
2026-05-04 11:50 37.59994 -77.46954 1257 ft 117 kts
2026-05-04 11:50 37.60843 -77.46684 1252 ft 136 kts 13°
2026-05-04 11:50 37.61795 -77.46338 1265 ft 144 kts 14°
2026-05-04 11:51 37.62726 -77.45992 1279 ft 131 kts 16°
2026-05-04 11:51 37.63467 -77.45646 1279 ft 98 kts 19°
2026-05-04 11:51 37.64072 -77.45389 1260 ft 94 kts 19°
2026-05-04 11:51 37.64729 -77.45032 1266 ft 105 kts 23°
2026-05-04 11:52 37.65386 -77.44710 1265 ft 102 kts 13°
2026-05-04 11:52 37.66083 -77.44576 1265 ft 101 kts 359°
2026-05-04 11:52 37.66783 -77.44635 1265 ft 100 kts 353°
2026-05-04 11:52 37.67455 -77.44659 1276 ft 86 kts 360°
2026-05-04 11:53 37.67995 -77.44574 1262 ft 77 kts
2026-05-04 11:53 37.68516 -77.44399 1264 ft 79 kts 15°
2026-05-04 11:53 37.69041 -77.44165 1278 ft 79 kts 12°
2026-05-04 11:53 37.69571 -77.44117 1154 ft 76 kts 349°
2026-05-04 11:55 37.71109 -77.42182 640 ft 69 kts 160°
2026-05-04 11:55 37.70640 -77.42086 581 ft 69 kts 188°
2026-05-04 11:56 37.70262 -77.42394 481 ft 62 kts 245°
2026-05-04 11:56 37.70213 -77.42862 370 ft 49 kts 279°
2026-05-04 11:56 37.70356 -77.43207 291 ft 44 kts 314°
2026-05-04 11:56 37.70553 -77.43431 245 ft 31 kts 319°
2026-05-04 11:57 37.70672 -77.43556 246 ft 14 kts 322°
2026-05-04 11:57 37.70731 -77.43651 255 ft 16 kts 322°
2026-05-04 11:57 37.70809 -77.43767 239 ft 18 kts 322°
2026-05-04 11:57 37.70875 -77.43846 219 ft 7 kts 324°
2026-05-04 11:58 37.70895 -77.43863 210 ft 1 kts 326°
2026-05-04 12:05 37.70897 -77.43861 242 ft 0 kts 36°
2026-05-04 12:05 37.70902 -77.43852 252 ft 4 kts 81°
2026-05-04 12:06 37.70864 -77.43630 322 ft 56 kts 101°
2026-05-04 12:06 37.70514 -77.43112 423 ft 95 kts 133°
2026-05-04 12:06 37.69903 -77.42605 466 ft 114 kts 145°
2026-05-04 12:06 37.69161 -77.42151 582 ft 121 kts 157°
2026-05-04 12:07 37.68337 -77.41939 711 ft 121 kts 173°
2026-05-04 12:07 37.67481 -77.41852 760 ft 126 kts 177°
2026-05-04 12:07 37.66593 -77.41809 759 ft 129 kts 180°
2026-05-04 12:07 37.65693 -77.41806 756 ft 130 kts 182°
2026-05-04 12:08 37.64784 -77.41842 756 ft 131 kts 184°
2026-05-04 12:08 37.63885 -77.41913 753 ft 131 kts 186°
2026-05-04 12:08 37.62973 -77.42009 755 ft 132 kts 186°
2026-05-04 12:08 37.62056 -77.42103 755 ft 132 kts 186°
2026-05-04 12:09 37.61139 -77.42190 755 ft 132 kts 186°
2026-05-04 12:09 37.60220 -77.42271 755 ft 132 kts 185°
2026-05-04 12:09 37.59303 -77.42343 766 ft 127 kts 185°
2026-05-04 12:09 37.58472 -77.42414 769 ft 111 kts 186°
2026-05-04 12:10 37.57767 -77.42453 763 ft 92 kts 186°
2026-05-04 12:10 37.57185 -77.42491 758 ft 77 kts 188°
2026-05-04 12:10 37.56670 -77.42542 756 ft 73 kts 189°
2026-05-04 12:10 37.56167 -77.42560 755 ft 71 kts 184°
2026-05-04 12:11 37.55678 -77.42587 775 ft 70 kts 182°
2026-05-04 12:11 37.55199 -77.42570 658 ft 68 kts 180°
2026-05-04 12:11 37.54730 -77.42537 544 ft 65 kts 182°
2026-05-04 12:11 37.54341 -77.42583 436 ft 43 kts 202°
2026-05-04 12:12 37.54151 -77.42684 431 ft 21 kts 223°
2026-05-04 12:12 37.54075 -77.42782 429 ft 13 kts 228°
2026-05-04 12:12 37.54027 -77.42855 399 ft 9 kts 229°
2026-05-04 12:12 37.53994 -77.42909 374 ft 6 kts 229°
2026-05-04 12:13 37.53973 -77.42943 362 ft 0 kts 222°
2026-05-04 12:18 37.53969 -77.42944 411 ft 4 kts 228°
2026-05-04 12:18 37.53958 -77.42989 524 ft 6 kts 229°
2026-05-04 12:19 37.53909 -77.43140 663 ft 34 kts 227°
2026-05-04 12:19 37.53819 -77.43586 644 ft 71 kts 260°
2026-05-04 12:19 37.53776 -77.44257 640 ft 77 kts 258°
2026-05-04 12:19 37.53678 -77.44911 631 ft 75 kts 251°
2026-05-04 12:20 37.53422 -77.45470 630 ft 74 kts 229°
2026-05-04 12:20 37.53053 -77.45953 624 ft 82 kts 228°
2026-05-04 12:20 37.52662 -77.46528 628 ft 89 kts 230°
2026-05-04 12:20 37.52266 -77.47136 623 ft 91 kts 232°
2026-05-04 12:21 37.51864 -77.47756 627 ft 92 kts 231°
2026-05-04 12:21 37.51451 -77.48375 626 ft 93 kts 231°
2026-05-04 12:21 37.51018 -77.48979 623 ft 93 kts 225°
2026-05-04 12:21 37.50521 -77.49423 622 ft 94 kts 210°
2026-05-04 12:22 37.49903 -77.49714 628 ft 96 kts 195°
2026-05-04 12:22 37.49238 -77.49793 622 ft 97 kts 180°
2026-05-04 12:22 37.48569 -77.49676 624 ft 97 kts 168°
2026-05-04 12:22 37.47908 -77.49494 623 ft 97 kts 170°
2026-05-04 12:23 37.47244 -77.49331 624 ft 97 kts 171°
2026-05-04 12:23 37.46588 -77.49191 624 ft 97 kts 174°
2026-05-04 12:23 37.45919 -77.49161 624 ft 96 kts 184°
2026-05-04 12:23 37.45252 -77.49224 624 ft 96 kts 187°
2026-05-04 12:24 37.44597 -77.49304 632 ft 89 kts 188°
2026-05-04 12:24 37.44075 -77.49355 634 ft 63 kts 188°
2026-05-04 12:24 37.43702 -77.49372 621 ft 49 kts 188°
2026-05-04 12:24 37.43335 -77.49394 622 ft 58 kts 187°
2026-05-04 12:25 37.42863 -77.49448 624 ft 78 kts 187°
2026-05-04 12:25 37.42284 -77.49487 626 ft 87 kts 175°
2026-05-04 12:25 37.41699 -77.49303 630 ft 88 kts 164°
2026-05-04 12:25 37.41099 -77.49140 622 ft 88 kts 182°
2026-05-04 12:26 37.40524 -77.49357 627 ft 87 kts 213°
2026-05-04 12:26 37.40039 -77.49803 624 ft 86 kts 223°
2026-05-04 12:26 37.39768 -77.50392 578 ft 72 kts 260°
2026-05-04 12:26 37.39764 -77.50996 482 ft 69 kts 281°
2026-05-04 12:27 37.39906 -77.51562 394 ft 64 kts 298°
2026-05-04 12:27 37.40155 -77.51941 305 ft 45 kts 323°
2026-05-04 12:27 37.40346 -77.52021 247 ft 13 kts
2026-05-04 12:27 37.40398 -77.51982 243 ft 7 kts 12°
2026-05-04 12:28 37.40435 -77.51956 239 ft 6 kts 12°
2026-05-04 12:28 37.40466 -77.51925 223 ft 4 kts 12°
2026-05-04 12:28 37.40481 -77.51922 221 ft 2 kts 284°
2026-05-04 12:28 37.40481 -77.51925 213 ft 0 kts 238°